| time (UTC) | temp F | wind direction | speed MPH | gust MPH | rain 1hr in | rain 24hr in | rain mn in | humidity % | barometer mb |
| 20260510211607 | 62 | 355 | 2.0 | 11.0 | 0.00 | 0.67 | 0.20 | 43 | 1015.8 |
| 20260510210028 | 63 | 329 | 1.0 | 7.0 | 0.00 | 0.67 | 0.20 | 45 | 1015.6 |
| 20260510204530 | 63 | 16 | 3.0 | 6.0 | 0.00 | 0.67 | 0.20 | 44 | 1015.5 |
| 20260510203102 | 61 | 10 | 3.0 | 9.0 | 0.00 | 0.67 | 0.20 | 46 | 1015.6 |
| 20260510201600 | 62 | 331 | 4.0 | 10.0 | 0.00 | 0.67 | 0.20 | 46 | 1015.5 |
| 20260510200041 | 63 | 238 | 1.0 | 8.0 | 0.00 | 0.67 | 0.20 | 49 | 1015.7 |
| 20260510194614 | 62 | 5 | 3.0 | 12.0 | 0.00 | 0.67 | 0.20 | 50 | 1015.8 |
| 20260510193136 | 61 | 5 | 2.0 | 7.0 | 0.00 | 0.67 | 0.20 | 49 | 1015.8 |
| 20260510191526 | 61 | 270 | 1.0 | 7.0 | 0.00 | 0.67 | 0.20 | 51 | 1015.9 |
| 20260510190110 | 61 | 15 | 4.0 | 13.0 | 0.00 | 0.67 | 0.20 | 49 | 1015.6 |
| 20260510184535 | 61 | 355 | 4.0 | 9.0 | 0.00 | 0.67 | 0.20 | 52 | 1015.5 |
| 20260510183109 | 59 | 13 | 3.0 | 11.0 | 0.00 | 0.67 | 0.20 | 57 | 1015.5 |
| 20260510181536 | 59 | 355 | 4.0 | 8.0 | 0.00 | 0.67 | 0.20 | 60 | 1015.4 |
| 20260510180113 | 58 | 188 | 2.0 | 6.0 | 0.00 | 0.67 | 0.20 | 65 | 1015.4 |
| 20260510174601 | 57 | 11 | 2.0 | 5.0 | 0.00 | 0.67 | 0.20 | 66 | 1015.6 |
| 20260510173019 | 57 | 348 | 2.0 | 8.0 | 0.00 | 0.67 | 0.20 | 68 | 1015.7 |
| 20260510171601 | 57 | 9 | 2.0 | 5.0 | 0.00 | 0.67 | 0.20 | 70 | 1015.7 |
| 20260510170034 | 56 | 336 | 1.0 | 5.0 | 0.00 | 0.67 | 0.20 | 80 | 1015.7 |
| 20260510164611 | 55 | 20 | 1.0 | 5.0 | 0.00 | 0.67 | 0.20 | 86 | 1015.4 |
| 20260510163035 | 53 | 360 | 1.0 | 5.0 | 0.00 | 0.67 | 0.20 | 91 | 1015.6 |
| 20260510161502 | 52 | 355 | 2.0 | 5.0 | 0.00 | 0.67 | 0.20 | 95 | 1015.5 |
| 20260510160038 | 52 | 346 | 1.0 | 4.0 | 0.00 | 0.67 | 0.20 | 97 | 1015.1 |
| 20260510154503 | 52 | 355 | 2.0 | 7.0 | 0.00 | 0.68 | 0.20 | 97 | 1015.1 |
| 20260510153045 | 52 | 5 | 1.0 | 5.0 | 0.00 | 0.68 | 0.20 | 97 | 1015.0 |
| 20260510151531 | 51 | 12 | 0.0 | 3.0 | 0.00 | 0.68 | 0.20 | 97 | 1015.0 |
| 20260510150105 | 51 | 10 | 1.0 | 3.0 | 0.01 | 0.68 | 0.20 | 98 | 1014.7 |
| 20260510144529 | 51 | 5 | 0.0 | 5.0 | 0.02 | 0.72 | 0.20 | 97 | 1014.4 |
| 20260510143106 | 51 | 12 | 1.0 | 3.0 | 0.02 | 0.72 | 0.20 | 97 | 1014.5 |
| 20260510141532 | 51 | 11 | 0.0 | 4.0 | 0.03 | 0.72 | 0.20 | 97 | 1014.2 |
| 20260510134525 | 52 | 338 | 0.0 | 5.0 | 0.02 | 0.72 | 0.18 | 97 | 1014.0 |
| 20260510133117 | 52 | 15 | 0.0 | 4.0 | 0.02 | 0.72 | 0.18 | 97 | 1013.6 |
| 20260510131545 | 52 | 42 | 0.0 | 4.0 | 0.01 | 0.71 | 0.17 | 97 | 1013.3 |
| 20260510130107 | 52 | 333 | 0.0 | 0.0 | 0.00 | 0.70 | 0.16 | 98 | 1013.6 |
| 20260510124545 | 52 | 333 | 0.0 | 3.0 | 0.00 | 0.73 | 0.16 | 98 | 1012.9 |
| 20260510123011 | 52 | 308 | 0.0 | 0.0 | 0.00 | 0.73 | 0.16 | 97 | 1012.6 |
| 20260510121521 | 52 | 308 | 0.0 | 3.0 | 0.00 | 0.73 | 0.16 | 97 | 1012.3 |
| 20260510120055 | 52 | 9 | 2.0 | 5.0 | 0.00 | 0.73 | 0.16 | 98 | 1012.0 |
| 20260510114527 | 51 | 5 | 0.0 | 0.0 | 0.00 | 0.73 | 0.16 | 98 | 1011.7 |
| 20260510113101 | 49 | 5 | 0.0 | 0.0 | 0.00 | 0.73 | 0.16 | 98 | 1011.4 |
| 20260510111524 | 49 | 5 | 0.0 | 0.0 | 0.00 | 0.73 | 0.16 | 97 | 1011.0 |
| 20260510110005 | 48 | 5 | 0.0 | 0.0 | 0.00 | 0.73 | 0.16 | 97 | 1010.7 |
| 20260510104535 | 47 | 5 | 0.0 | 0.0 | 0.00 | 0.73 | 0.16 | 97 | 1010.9 |
| 20260510103006 | 48 | 5 | 0.0 | 0.0 | 0.00 | 0.73 | 0.16 | 97 | 1010.6 |
| 20260510101604 | 48 | 5 | 0.0 | 0.0 | 0.00 | 0.73 | 0.16 | 97 | 1010.1 |
| 20260510100025 | 49 | 5 | 0.0 | 0.0 | 0.00 | 0.73 | 0.16 | 97 | 1009.8 |
| 20260510094604 | 49 | 5 | 0.0 | 0.0 | 0.00 | 0.73 | 0.16 | 97 | 1009.6 |
| 20260510093021 | 50 | 5 | 0.0 | 0.0 | 0.00 | 0.73 | 0.16 | 97 | 1009.6 |
| 20260510091557 | 50 | 5 | 0.0 | 0.0 | 0.00 | 0.73 | 0.16 | 97 | 1009.4 |
| 20260510090004 | 50 | 5 | 0.0 | 0.0 | 0.00 | 0.73 | 0.16 | 97 | 1009.2 |
| 20260510084538 | 51 | 5 | 0.0 | 0.0 | 0.00 | 0.74 | 0.16 | 97 | 1009.0 |
| 20260510083002 | 52 | 5 | 0.0 | 1.0 | 0.00 | 0.74 | 0.16 | 97 | 1009.1 |
| 20260510081540 | 52 | 5 | 1.0 | 5.0 | 0.00 | 0.74 | 0.16 | 97 | 1008.9 |
| 20260510080115 | 52 | 221 | 0.0 | 3.0 | 0.00 | 0.74 | 0.16 | 97 | 1008.7 |
| 20260510074535 | 51 | 166 | 0.0 | 0.0 | 0.00 | 0.74 | 0.16 | 97 | 1008.4 |
| 20260510073006 | 51 | 166 | 0.0 | 0.0 | 0.01 | 0.74 | 0.16 | 96 | 1008.1 |
| 20260510071539 | 52 | 166 | 0.0 | 0.0 | 0.01 | 0.74 | 0.16 | 97 | 1008.1 |
| 20260510070020 | 52 | 166 | 0.0 | 0.0 | 0.01 | 0.74 | 0.16 | 96 | 1008.3 |
| 20260510064602 | 52 | 166 | 0.0 | 2.0 | 0.01 | 0.74 | 0.16 | 97 | 1008.5 |
| 20260510063032 | 52 | 166 | 0.0 | 2.0 | 0.00 | 0.73 | 0.15 | 97 | 1008.6 |
| 20260510061557 | 52 | 165 | 0.0 | 1.0 | 0.01 | 0.73 | 0.15 | 96 | 1008.6 |
| 20260510060019 | 52 | 165 | 0.0 | 0.0 | 0.07 | 0.73 | 0.15 | 96 | 1008.7 |
| 20260510054513 | 53 | 165 | 0.0 | 3.0 | 0.08 | 0.73 | 0.15 | 96 | 1008.8 |
| 20260510053050 | 53 | 174 | 0.0 | 4.0 | 0.12 | 0.73 | 0.15 | 96 | 1008.7 |
| 20260510051513 | 53 | 171 | 0.0 | 0.0 | 0.13 | 0.72 | 0.14 | 96 | 1009.4 |
| 20260510050043 | 53 | 171 | 0.0 | 0.0 | 0.08 | 0.66 | 0.08 | 96 | 1009.8 |
| 20260510044507 | 53 | 171 | 0.0 | 1.0 | 0.07 | 0.66 | 0.07 | 96 | 1009.5 |
| 20260510043053 | 53 | 171 | 0.0 | 1.0 | 0.03 | 0.62 | 0.03 | 96 | 1009.2 |
| 20260510041507 | 53 | 171 | 0.0 | 2.0 | 0.01 | 0.60 | 0.01 | 95 | 1009.0 |
| 20260510040049 | 52 | 171 | 0.0 | 0.0 | 0.00 | 0.59 | 0.00 | 95 | 1008.4 |
| 20260510034550 | 53 | 171 | 0.0 | 0.0 | 0.00 | 0.60 | 0.59 | 95 | 1008.3 |
| 20260510033012 | 53 | 171 | 0.0 | 0.0 | 0.03 | 0.60 | 0.59 | 95 | 1008.6 |
| 20260510031553 | 53 | 171 | 0.0 | 0.0 | 0.10 | 0.60 | 0.59 | 94 | 1008.4 |
| 20260510030017 | 53 | 171 | 0.0 | 3.0 | 0.16 | 0.60 | 0.59 | 94 | 1008.5 |
| 20260510024550 | 53 | 171 | 1.0 | 4.0 | 0.24 | 0.63 | 0.59 | 94 | 1008.6 |
| 20260510023013 | 53 | 155 | 0.0 | 3.0 | 0.44 | 0.60 | 0.56 | 93 | 1009.5 |
| 20260510021549 | 54 | 155 | 0.0 | 3.0 | 0.37 | 0.53 | 0.49 | 92 | 1009.6 |
| 20260510020014 | 54 | 11 | 0.0 | 5.0 | 0.31 | 0.47 | 0.43 | 90 | 1009.6 |
| 20260510014545 | 55 | 72 | 2.0 | 10.0 | 0.23 | 0.41 | 0.35 | 86 | 1009.3 |
| 20260510013112 | 60 | 347 | 5.0 | 19.0 | 0.00 | 0.18 | 0.12 | 72 | 1008.8 |
| 20260510011535 | 61 | 239 | 0.0 | 6.0 | 0.00 | 0.18 | 0.12 | 67 | 1006.4 |
| 20260510010105 | 61 | 207 | 0.0 | 4.0 | 0.00 | 0.18 | 0.12 | 67 | 1006.3 |
| 20260510004528 | 61 | 199 | 1.0 | 4.0 | 0.00 | 0.18 | 0.12 | 67 | 1006.3 |
| 20260510003106 | 62 | 266 | 0.0 | 3.0 | 0.00 | 0.18 | 0.12 | 66 | 1006.2 |
| 20260510001530 | 63 | 286 | 0.0 | 4.0 | 0.00 | 0.18 | 0.12 | 64 | 1006.1 |
| 20260510000046 | 63 | 259 | 1.0 | 4.0 | 0.00 | 0.18 | 0.12 | 62 | 1005.8 |
| 20260509234509 | 64 | 280 | 3.0 | 7.0 | 0.00 | 0.18 | 0.12 | 61 | 1005.7 |
| 20260509233051 | 65 | 183 | 1.0 | 9.0 | 0.00 | 0.18 | 0.12 | 60 | 1005.6 |
| 20260509231604 | 65 | 239 | 2.0 | 6.0 | 0.00 | 0.18 | 0.12 | 59 | 1005.6 |
| 20260509230030 | 66 | 260 | 4.0 | 8.0 | 0.00 | 0.18 | 0.12 | 57 | 1005.6 |
| 20260509224510 | 68 | 238 | 2.0 | 6.0 | 0.00 | 0.18 | 0.12 | 57 | 1005.6 |
| 20260509223059 | 68 | 246 | 2.0 | 7.0 | 0.00 | 0.18 | 0.12 | 57 | 1005.2 |
| 20260509221521 | 68 | 259 | 3.0 | 8.0 | 0.00 | 0.18 | 0.12 | 56 | 1005.5 |
| 20260509220050 | 68 | 255 | 2.0 | 7.0 | 0.00 | 0.18 | 0.12 | 57 | 1005.6 |
| 20260509214510 | 68 | 245 | 3.0 | 7.0 | 0.00 | 0.21 | 0.12 | 56 | 1005.6 |
| 20260509213047 | 67 | 236 | 2.0 | 10.0 | 0.00 | 0.21 | 0.12 | 59 | 1005.9 |